Wind_Speed
11 9 7 6 6 7 10 7 4 4 5 4 3 4 3 4 5 4 1 1 2 3 4 3 2 3 3 3 2 3 7 10 13 14 12 2 5 6 5 11 8 12 14 7 13
11 8 7 7 7 10 9 6 4 5 5 3 2 3 1 3 5 4 2 3 6 6 3 5 7 6 9 5 3 5 9 13 11 12 12 14 10 16 7 13 17 16 16 17 17
10 8 8 8 10 12 8 6 5 5 4 3 3 1 1 2 4 4 1 5 6 7 6 5 6 7 10 7 7 5 9 11 13 10 12 15 15 15 16 18 21 21 21 24 22
9 8 8 10 12 11 8 7 6 5 5 3 3 2 1 2 2 3 5 7 7 8 5 6 6 10 7 8 4 8 16 10 12 9 8 13 15 16 20 31 24 13 17 22 28
7 9 10 12 12 10 8 6 5 5 4 4 4 3 3 7 3 6 6 5 8 8 4 6 9 9 9 6 7 13 11 10 12 13 15 16 20 18 26 27 23 24 20 21 28
9 10 12 13 11 9 7 5 6 5 5 6 5 4 5 13 7 8 6 8 6 4 5 4 5 5 9 8 6 7 11 18 15 14 13 12 17 8 19 14 17 25 26 23 28
8 11 12 12 10 8 6 6 7 5 6 7 6 6 7 12 8 10 10 7 7 4 5 6 3 4 3 7 7 9 11 15 15 9 9 7 14 16 26 16 19 19 23 26 28
11 10 11 11 9 8 7 7 8 8 8 8 7 6 11 12 12 10 8 6 8 7 7 7 4 3 5 4 6 6 10 6 6 7 4 3 18 14 14 11 20 21 23 25 28
9 9 11 10 9 8 7 7 9 9 9 9 7 6 13 6 5 8 7 5 4 6 7 6 4 7 4 7 10 9 9 13 9 6 4 8 22 15 20 25 27 25 27 26 27
9 9 9 9 7 8 8 7 9 10 10 8 9 7 11 3 6 6 7 6 4 4 4 6 7 7 7 7 9 14 16 16 15 7 8 17 26 27 28 24 28 28 27 26 29
9 8 8 7 7 8 8 5 5 5 12 11 3 5 2 5 4 4 6 4 5 8 11 6 8 10 12 11 12 12 14 16 17 7 5 17 23 26 28 20 16 16 17 18 20
8 8 7 7 6 8 6 6 7 4 8 15 16 12 8 5 5 7 5 5 7 9 3 7 12 7 5 4 7 11 14 15 13 2 4 16 25 24 13 6 10 11 13 14 14
9 9 7 7 7 7 8 9 8 6 7 4 7 7 8 9 7 5 5 3 9 11 10 13 12 2 4 11 9 11 11 14 14 15 16 12 12 3 6 4 14 19 18 17 18
9 7 6 6 4 7 6 6 4 3 5 8 5 4 4 4 5 6 4 3 3 7 7 10 3 3 5 9 9 13 6 6 10 10 7 8 6 8 6 8 10 15 20 21 19
9 8 9 8 3 5 5 4 1 0 4 4 4 4 4 5 1 3 4 2 8 8 4 2 4 5 9 7 3 6 6 9 10 10 10 4 4 4 3 6 8 13 14 18 19
10 10 9 7 7 6 5 4 1 4 5 4 4 4 5 5 2 2 2 4 3 6 10 14 1 4 4 3 5 9 10 13 7 5 4 5 3 7 2 6 4 11 12 18 23
11 10 10 9 6 7 6 4 4 6 2 5 2 3 3 3 4 4 5 7 5 4 4 6 7 3 3 5 5 7 10 5 5 5 4 4 5 13 13 7 7 8 10 20 22
10 11 11 10 8 7 6 4 7 3 1 2 2 3 4 4 4 4 4 6 4 6 7 4 4 5 6 2 5 6 4 5 6 8 14 5 6 3 6 12 3 5 15 22 23
7 10 11 10 9 8 5 7 4 2 2 3 3 4 6 4 3 5 6 5 1 6 4 5 3 3 1 1 3 4 4 4 8 15 6 7 8 10 7 3 4 14 21 24 19
6 6 9 12 11 10 7 8 3 1 2 1 5 3 4 6 5 4 3 4 3 0 1 4 8 2 3 2 4 6 5 5 5 5 9 9 14 10 12 12 12 13 23 19 15
8 5 7 13 13 8 8 7 4 5 5 5 5 5 7 4 6 6 4 4 2 3 3 3 4 1 3 7 7 5 4 5 4 6 7 12 6 8 15 20 10 13 16 15 15
6 3 7 16 9 7 9 4 1 5 5 6 4 8 8 3 5 5 6 2 4 5 3 2 5 9 13 5 2 8 12 11 9 12 9 13 19 15 5 7 9 20 16 16 16
3 4 9 20 7 9 4 3 4 6 7 5 6 6 2 4 5 8 4 4 3 3 1 3 4 7 4 2 3 5 3 10 13 14 19 15 14 17 22 23 28 25 22 14 16
4 4 4 11 7 6 10 10 7 6 6 6 2 3 5 6 7 4 5 2 4 3 2 1 9 13 13 17 17 19 18 15 15 12 20 19 31 24 24 24 26 19 15 18 19
6 3 5 5 11 13 7 2 11 7 7 7 5 11 8 7 8 11 11 6 6 4 4 3 9 14 17 19 19 21 24 22 23 25 23 28 27 26 20 12 10 16 20 21 18
5 4 3 2 1 13 12 10 13 7 6 6 9 4 10 10 10 6 5 5 8 5 4 2 8 12 18 20 21 23 23 22 24 25 25 25 24 7 11 13 15 19 24 21 19
14 8 4 6 7 8 11 10 8 10 4 5 7 8 8 7 3 4 5 9 10 8 9 9 8 11 13 10 14 17 16 12 14 14 16 17 19 16 11 12 15 23 21 19 24
Wind_Direction
210 202 191 204 202 187 176 177 176 167 171 147 130 133 123 129 130 140 118 211 350 345 326 324 269 245 259 261 265 285 267 268 280 288 293 77 262 230 259 254 225 217 244 227 193
219 202 204 202 187 176 178 176 180 179 184 167 149 119 102 148 161 206 214 31 12 359 337 271 272 259 266 262 248 248 275 282 307 310 299 303 268 279 245 242 244 238 226 231 219
219 211 205 197 179 173 182 175 196 186 192 192 189 144 105 144 215 192 269 344 351 346 336 280 267 263 269 270 246 257 260 302 298 304 292 283 273 264 259 260 261 247 238 233 220
221 214 200 190 173 177 185 185 198 200 204 211 213 236 272 265 273 187 308 323 335 342 319 288 270 255 266 261 243 264 270 280 287 289 274 267 278 265 254 260 268 272 251 228 224
213 209 190 180 175 181 190 193 212 217 217 230 233 244 265 247 254 277 293 314 325 331 293 287 275 274 267 294 276 249 282 288 275 271 268 274 261 264 266 264 263 256 249 235 220
199 195 181 179 184 187 198 212 228 231 236 242 243 256 274 263 264 279 282 306 299 302 294 295 288 283 283 270 257 329 283 277 279 278 266 262 273 264 269 272 257 245 241 236 228
190 187 180 188 194 203 216 228 238 242 250 250 254 266 262 273 260 270 277 275 287 278 278 279 271 264 307 264 264 277 287 286 253 252 263 288 262 235 262 265 258 250 242 239 235
201 188 194 199 211 217 227 243 255 254 255 258 262 276 270 263 261 259 262 274 282 280 263 269 260 242 258 288 255 267 260 278 153 186 203 241 286 291 295 284 269 256 252 247 243
201 196 205 204 223 233 240 255 260 262 259 255 271 253 270 253 243 227 233 239 239 280 273 270 266 268 240 254 278 200 288 309 315 209 286 224 293 294 304 295 274 272 273 265 252
206 207 211 217 229 244 250 264 271 260 249 257 247 250 229 208 216 224 235 230 238 242 260 242 249 252 225 261 286 320 307 305 303 308 215 276 279 291 299 296 286 284 278 267 265
208 213 221 226 230 240 241 270 253 241 229 223 292 232 127 192 208 222 234 236 238 240 260 205 270 259 297 320 314 301 293 292 300 352 299 277 290 297 310 312 308 312 306 285 269
211 217 216 231 236 239 237 228 263 250 282 232 243 236 219 203 254 232 234 228 220 259 245 246 255 325 14 337 288 284 286 289 307 56 302 291 301 294 290 29 11 355 356 353 328
213 217 216 232 242 232 224 233 245 254 258 230 225 240 231 229 253 232 203 242 255 269 254 262 290 45 314 291 277 279 280 295 303 320 280 305 276 346 90 78 53 45 38 33 23
224 226 229 233 243 224 231 221 224 258 270 160 196 191 187 170 224 207 199 230 233 289 300 273 27 301 280 279 288 290 7 315 293 312 314 3 297 309 19 82 80 52 47 42 31
230 225 224 208 229 206 226 202 259 22 268 133 145 167 178 210 102 166 203 190 261 264 244 333 287 283 286 319 320 304 327 289 295 282 304 147 254 244 318 41 44 32 48 28 17
225 222 219 218 224 230 209 196 199 230 241 130 131 173 191 195 189 128 175 209 272 273 242 265 277 269 281 291 256 311 280 253 268 255 242 111 275 282 287 18 3 34 26 10 6
229 218 216 213 214 204 195 165 226 246 123 146 148 185 235 173 186 208 204 206 240 276 207 202 212 169 227 270 201 250 288 302 212 211 303 147 264 256 305 304 359 11 4 3 358
224 217 217 216 213 191 176 221 244 44 271 101 137 176 235 174 191 205 227 250 196 241 274 295 235 194 151 289 315 319 306 298 302 306 308 144 247 265 334 312 156 21 350 358 3
218 215 217 210 206 189 206 222 308 31 80 176 169 231 184 205 262 225 226 282 80 205 274 298 242 124 178 286 293 112 252 7 286 265 274 241 247 265 302 170 324 15 355 5 14
196 207 223 205 199 185 228 243 269 166 161 262 252 238 233 171 222 211 257 118 150 264 303 2 284 120 109 233 218 256 346 265 204 287 294 293 300 264 289 301 358 351 358 7 6
187 216 231 198 184 202 228 232 232 208 196 226 263 243 247 245 253 266 280 126 160 142 217 290 238 167 192 207 270 205 235 218 306 283 285 301 280 25 316 300 317 330 347 340 339
190 231 209 176 189 207 230 225 189 196 207 237 273 269 264 221 258 254 259 238 136 170 226 174 303 280 279 120 264 277 284 282 261 278 259 287 289 290 337 354 300 321 342 322 327
218 228 195 179 219 211 203 229 242 204 213 199 229 243 265 237 240 237 233 94 144 203 297 155 223 298 280 210 186 239 218 254 274 285 266 277 264 312 304 303 324 342 332 320 323
197 206 174 202 253 261 215 232 214 215 227 215 218 205 209 229 231 258 241 129 170 193 224 196 259 260 274 287 306 298 292 274 266 271 282 269 291 300 310 318 327 338 332 317 319
213 240 191 195 219 221 217 230 216 200 218 212 209 229 217 243 241 240 246 219 201 186 186 249 263 275 280 287 290 287 283 280 274 272 273 289 293 303 319 360 345 325 329 323 319
216 205 206 268 339 207 205 218 225 195 188 207 236 215 223 238 244 298 243 233 269 167 224 183 276 297 284 275 273 281 279 277 269 271 273 280 285 319 338 332 325 328 324 314 310
221 212 196 161 200 204 210 226 223 227 200 269 228 226 228 246 320 292 268 270 268 261 250 244 275 302 285 294 308 285 276 259 253 257 276 282 294 307 334 322 316 319 315 314 316
Height
1541 1540 1540 1542 1543 1544 1544 1546 1546 1546 1547 1547 1547 1545 1545 1545 1545 1546 1547 1547 1545 1544 1543 1543 1543 1544 1543 1543 1543 1542 1539 1533 1527 1525 1522 1527 1528 1529 1530 1528 1528 1529 1529 1527 1526
1541 1539 1540 1541 1542 1543 1545 1545 1546 1547 1547 1547 1547 1546 1546 1544 1545 1547 1547 1545 1544 1543 1543 1544 1544 1544 1542 1542 1541 1540 1535 1529 1524 1526 1525 1525 1528 1526 1528 1524 1523 1525 1526 1523 1523
1540 1539 1540 1540 1541 1543 1545 1544 1546 1547 1547 1547 1547 1547 1546 1545 1546 1546 1545 1544 1543 1542 1542 1542 1542 1542 1539 1540 1538 1533 1533 1525 1527 1527 1528 1526 1524 1525 1523 1518 1516 1516 1519 1518 1520
1538 1538 1539 1540 1541 1543 1544 1545 1546 1546 1546 1547 1547 1547 1546 1545 1544 1544 1544 1544 1543 1542 1542 1542 1541 1539 1537 1535 1536 1535 1528 1528 1528 1528 1527 1524 1522 1519 1517 1510 1512 1512 1512 1512 1511
1536 1538 1539 1540 1541 1543 1544 1544 1545 1546 1545 1546 1547 1546 1546 1545 1542 1542 1542 1542 1541 1541 1541 1541 1539 1537 1534 1533 1535 1532 1527 1527 1527 1527 1525 1523 1519 1518 1507 1506 1507 1507 1507 1508 1506
1538 1538 1539 1540 1542 1543 1543 1544 1546 1544 1545 1546 1546 1545 1544 1543 1540 1541 1541 1541 1541 1541 1540 1540 1538 1537 1535 1533 1533 1530 1529 1525 1523 1522 1521 1520 1514 1514 1498 1498 1499 1500 1500 1501 1502
1537 1539 1538 1541 1541 1543 1543 1543 1544 1543 1544 1545 1545 1543 1543 1541 1538 1539 1540 1539 1539 1539 1539 1538 1537 1537 1535 1530 1531 1530 1527 1518 1514 1517 1518 1518 1509 1501 1492 1494 1493 1493 1493 1494 1494
1538 1536 1538 1539 1541 1542 1542 1543 1542 1542 1543 1543 1543 1541 1540 1537 1536 1538 1538 1538 1537 1537 1537 1537 1536 1535 1535 1533 1528 1527 1520 1516 1513 1515 1515 1519 1494 1487 1487 1488 1486 1487 1486 1486 1487
1535 1536 1539 1538 1542 1541 1541 1541 1541 1541 1542 1543 1542 1541 1537 1534 1535 1536 1536 1538 1536 1535 1536 1536 1537 1534 1533 1530 1520 1512 1518 1510 1507 1512 1512 1514 1494 1485 1487 1486 1480 1481 1480 1479 1479
1535 1537 1537 1538 1539 1540 1540 1540 1539 1540 1541 1541 1539 1543 1534 1533 1533 1534 1534 1535 1535 1535 1536 1537 1535 1529 1525 1524 1526 1517 1516 1511 1511 1505 1510 1505 1493 1479 1480 1477 1473 1472 1470 1471 1472
1535 1536 1537 1537 1538 1540 1540 1539 1542 1540 1538 1535 1534 1532 1531 1532 1533 1534 1533 1534 1534 1534 1531 1532 1531 1523 1515 1515 1518 1520 1520 1518 1508 1506 1510 1501 1489 1478 1473 1471 1467 1465 1464 1463 1465
1534 1536 1536 1537 1537 1539 1537 1538 1536 1538 1534 1531 1530 1530 1531 1531 1532 1532 1532 1534 1532 1528 1526 1532 1526 1519 1521 1523 1524 1521 1520 1515 1504 1510 1513 1498 1489 1477 1470 1470 1471 1470 1468 1466 1464
1534 1535 1535 1536 1536 1536 1535 1536 1536 1535 1534 1527 1528 1529 1530 1531 1530 1529 1531 1530 1529 1526 1525 1528 1519 1524 1524 1522 1522 1517 1515 1513 1514 1509 1500 1499 1481 1467 1466 1465 1468 1469 1468 1466 1465
1533 1533 1533 1534 1537 1534 1535 1535 1534 1534 1530 1523 1526 1526 1527 1528 1528 1528 1528 1530 1528 1526 1524 1522 1521 1523 1523 1522 1519 1521 1516 1516 1516 1517 1510 1500 1501 1470 1466 1462 1466 1469 1470 1469 1467
1530 1531 1532 1533 1533 1534 1534 1534 1533 1535 1542 1524 1524 1525 1525 1526 1527 1527 1526 1528 1526 1524 1529 1518 1520 1523 1522 1518 1521 1515 1520 1518 1517 1516 1512 1501 1511 1469 1461 1465 1466 1467 1470 1470 1468
1529 1530 1530 1531 1532 1531 1532 1532 1534 1537 1527 1521 1521 1523 1524 1524 1525 1526 1526 1527 1527 1525 1521 1519 1522 1523 1520 1522 1523 1521 1518 1509 1513 1512 1514 1496 1503 1475 1463 1469 1466 1469 1470 1470 1467
1526 1527 1528 1530 1531 1530 1532 1533 1533 1529 1518 1521 1519 1520 1520 1520 1521 1522 1521 1522 1521 1522 1513 1515 1517 1521 1523 1521 1521 1521 1510 1504 1507 1511 1497 1501 1505 1479 1464 1464 1468 1471 1470 1469 1467
1524 1525 1527 1527 1528 1530 1531 1532 1533 1516 1514 1518 1518 1520 1519 1518 1519 1520 1519 1516 1517 1521 1519 1516 1513 1517 1520 1519 1518 1516 1517 1514 1521 1503 1497 1501 1501 1474 1464 1466 1467 1468 1470 1468 1465
1522 1523 1525 1524 1527 1528 1531 1528 1513 1513 1515 1517 1518 1518 1516 1519 1521 1518 1514 1512 1513 1517 1520 1516 1513 1519 1521 1522 1523 1519 1519 1515 1514 1497 1505 1487 1476 1470 1459 1462 1464 1469 1469 1466 1466
1520 1523 1522 1523 1526 1528 1529 1521 1515 1516 1517 1518 1517 1514 1514 1514 1518 1515 1507 1512 1516 1520 1520 1516 1521 1516 1522 1523 1523 1521 1519 1515 1512 1516 1503 1478 1475 1467 1462 1461 1462 1468 1466 1467 1467
1520 1522 1519 1521 1525 1527 1522 1515 1514 1517 1518 1518 1514 1514 1513 1513 1513 1511 1510 1516 1517 1520 1522 1518 1519 1517 1520 1517 1509 1516 1514 1518 1515 1506 1506 1497 1478 1462 1465 1463 1463 1464 1466 1467 1468
1519 1519 1517 1520 1524 1519 1515 1515 1516 1515 1518 1518 1518 1514 1512 1511 1512 1512 1511 1510 1518 1520 1520 1518 1516 1515 1504 1509 1511 1511 1509 1507 1510 1503 1495 1492 1474 1455 1462 1465 1465 1462 1464 1465 1467
1516 1517 1517 1518 1516 1515 1514 1514 1515 1515 1514 1515 1514 1515 1513 1513 1517 1509 1512 1518 1520 1521 1519 1520 1514 1518 1501 1509 1511 1510 1504 1509 1503 1500 1501 1501 1476 1459 1461 1459 1459 1461 1463 1464 1465
1516 1514 1516 1516 1514 1509 1508 1509 1512 1513 1513 1514 1512 1514 1514 1513 1511 1511 1514 1519 1521 1522 1523 1523 1516 1515 1515 1504 1500 1503 1500 1498 1502 1502 1489 1483 1463 1466 1462 1462 1462 1463 1465 1465 1463
1512 1508 1506 1509 1509 1509 1507 1506 1507 1509 1512 1512 1511 1511 1511 1511 1510 1512 1512 1515 1521 1522 1522 1521 1516 1510 1506 1503 1502 1501 1499 1498 1497 1487 1490 1468 1472 1464 1464 1466 1468 1467 1465 1463 1460
1507 1507 1506 1505 1504 1505 1506 1501 1503 1503 1507 1507 1508 1506 1509 1510 1506 1509 1512 1514 1513 1520 1520 1522 1515 1509 1508 1501 1499 1494 1488 1488 1485 1483 1479 1474 1468 1464 1468 1469 1469 1467 1464 1460 1458
1500 1501 1503 1500 1502 1503 1498 1498 1500 1501 1507 1506 1505 1507 1510 1510 1512 1514 1515 1515 1513 1514 1513 1514 1513 1513 1504 1495 1496 1495 1473 1471 1471 1472 1472 1472 1463 1461 1467 1469 1468 1465 1461 1459 1456